Retour au catalogue

ARIANE 5 R/B

ActifHEO
NORAD 36832·ROCKET BODY·🇫🇷 France

Lancé Aug 4, 2010 depuis Guiana Space Centre

Loading…

Prochains Passages (prochaines 24 heures)

TLE

FraisSource: Space-Track

Époque: Sep 14, 2026, 16:00 UTC

1 36832U 10037C   26257.66713917  .00001200  00000-0  45277-3 0  9996
2 36832   2.5232 296.2879 6985127 114.1946 330.0784  2.65179062144579

Suivez ARIANE 5 R/B en temps réel avec AllMySat

Download on the App Store